OneWeb SL0399

operational
NORAD ID: 50479 Int'l Des: 2021-132 Owner: ONEWEBN Country: UK Constellation: oneweb
LEOCIRCULARPOLARONEWEB_TYPE

About OneWeb SL0399

Description loading...

Live Position

Loading 3D Globe...

Upcoming Passes

Altitude History

Altitude vs Time

uPlot chart will show altitude changes over time

Two-Line Element Set

1 50479U 21132L 25341.92155123 .00000117 00000-0 29433-3 0 9990
2 50479 87.8857 59.1511 0001773 121.2169 238.9133 13.11416984190537
Epoch: Dec 7, 2025 • Age: 13 hours

Current Status

Altitude 1227.3 km
Velocity 7.25 km/s
Sub-Earth Point 63.13°N, 15.53°W
Launch Date Dec 27, 2021
Age 3.9 years
Type internet

Technical Details

Classification Payload
Mass 148.00 kg
Dry Mass 140.00 kg
Total Mass 148.00 kg
Length 1.30 m
Diameter 1.00 m
Span 5.00 m
Shape Trapezoid+2 pan
Manufacturer ONEWUS
Bus Type ARROW
Phase Status In Orbit
Owner/State ONEWEBN/UK

Large Constellations

Loading constellations...